Regional Weather Roundup
Issued by NWS

Home | Current Version | Previous Version | Graphics & Text | Print | Product List | Glossary On
Versions: 1 2 3 4 5 6 7 8 9 10 11 12 13 14 15 16 17 18 19 20 21 22 23 24 25 26 27 28 29 30 31 32 33 34 35 36 37 38 39 40 41 42 43 44 45 46 47 48 49 50
207
ASUS45 KABQ 222210
RWRNM
NEW MEXICO REGIONAL WEATHER ROUNDUP
NATIONAL WEATHER SERVICE ALBUQUERQUE NM
400 PM MDT SAT APR 22 2017

NOTE: "FAIR" MEANS FEW OR NO CLOUDS BELOW 12,000 FEET AGL WITH NO
       SIGNIFICANT WEATHER OR OBSTRUCTIONS TO VISION.

      THIS PRODUCT IS RELEASED AS TWO VERSIONS.  ONE VERSION NEAR
      THE TOP OF THE HOUR CONTAINING PRELIMINARY DATA FROM ALBUQUERQUE
      AND OTHER STATIONS.  A FINAL VERSION WITH ADDITIONAL DATA IS
      ISSUED ABOUT 10 MINUTES AFTER THE HOUR.

NMZ501-503-504-510>518-222300-
NORTHWEST PLATEAU/NORTHCENTRAL MOUNTAINS

CITY           SKY/WX    TMP DP  RH WIND       PRES   REMARKS
FARMINGTON     FAIR      64   7  10 VRB5      30.11F
LOS ALAMOS     FAIR      58  28  32 S16       30.19F
SANTA FE       FAIR      60  31  33 SE16G28   30.17F
TAOS             N/A     61  25  25 SW15      30.16F
ANGEL FIRE     CLOUDY    44  28  53 E13G18    30.27S

$$
NMZ402-403-502-505>509-222300-
WESTCENTRAL MOUNTAINS/SOUTHWEST MOUNTAINS

CITY           SKY/WX    TMP DP  RH WIND       PRES   REMARKS
GALLUP         FAIR      69  18  14 W9        30.12F
GRANTS         FAIR      71  15  11 N6        30.13F
SILVER CITY    FAIR      74  31  21 SE9       30.09F

$$
NMZ407-409-411-412-222300-
SOUTHERN DESERTS

CITY           SKY/WX    TMP DP  RH WIND       PRES   REMARKS
DEMING         FAIR      79  31  17 VRB3      30.03F
LAS CRUCES     FAIR      77  33  20 E7        30.07F
HOLLOMAN AFB   FAIR      76  31  19 CALM      30.09F
ALAMOGORDO     FAIR      73  37  27 SE10      30.07F
T OR C         FAIR      74  23  15 E6        30.06F

$$
NMZ519>523-222300-
CENTRAL VALLEYS/CENTRAL HIGHLANDS

CITY           SKY/WX    TMP DP  RH WIND       PRES   REMARKS
ALBUQUERQUE    FAIR      69  24  18 VRB3      30.13F
DOUBLE EAGLE   MOSUNNY   64  30  27 SE8       30.14F
MORIARTY ARPT  FAIR      59  32  36 E7        30.23F
CLINES CORNERS FAIR      52  31  44 SE9G17    30.25F
BELEN          FAIR      69  27  20 SE6       30.12F
SOCORRO        FAIR      73  29  20 N8        30.09F

$$
NMZ524>526-539-540-222300-
SOUTHCENTRAL MOUNTAINS

CITY           SKY/WX    TMP DP  RH WIND       PRES   REMARKS
RUIDOSO        FAIR      54  32  43 SE13      30.24S

$$
NMZ527>531-222300-
NORTHEAST HIGHLANDS/NORTHEAST PLAINS

CITY           SKY/WX    TMP DP  RH WIND       PRES   REMARKS
LAS VEGAS      CLOUDY    48  32  53 E6        30.26F
RATON          CLOUDY    46  29  51 NE6       30.27F
CLAYTON        PTSUNNY   56  29  35 NE10      30.25S

$$
NMZ532>537-222300-
EASTCENTRAL PLAINS

CITY           SKY/WX    TMP DP  RH WIND       PRES   REMARKS
SANTA ROSA     FAIR      61  31  31 CALM      30.20F
TUCUMCARI      FAIR      63  30  28 N14G22    30.20F
CANNON AFB     PTSUNNY   63  29  28 NE16      30.20S
CLOVIS AIRPORT PTSUNNY   61  30  31 NE13G23   30.21S

$$
NMZ028-029-538-222300-
SOUTHEAST PLAINS

CITY           SKY/WX    TMP DP  RH WIND       PRES   REMARKS
ROSWELL        FAIR      67  33  28 VRB5        N/A
ARTESIA        FAIR      64  36  34 N12       30.17F
CARLSBAD       FAIR      67  36  31 N7        30.14F
HOBBS          SUNNY     64  32  29 NE10      30.17F


$$




USA.gov is the U.S. government's official web portal to all federal, state and local government web resources and services.